Wind_Speed
16 16 18 19 20 22 23 24 25 26 26 27 27 28 28 29 29 30 31 31 32 32 32 33 33 33 33 33 33 33 33 33 33 33 32 33 34 35 36 36 36 36 37 39 41 42 41 40 38 37 37 38 39 40 40 41 41 39 38 38 37 35 35
17 18 20 21 23 24 25 26 26 27 27 28 28 28 29 29 29 29 30 30 31 32 33 33 34 34 35 35 35 35 35 35 35 34 34 33 33 34 34 36 37 37 37 38 40 41 42 42 40 39 39 39 39 40 42 42 42 41 39 38 37 36 35
19 20 22 23 24 25 25 26 26 27 28 28 29 29 29 29 29 29 29 29 30 30 31 32 33 34 34 35 35 35 35 36 36 36 36 35 35 34 34 34 36 37 37 38 39 40 42 42 42 41 40 41 40 40 42 44 43 43 41 39 38 36 36
21 22 23 23 24 24 25 26 27 28 29 29 29 29 29 29 29 29 29 29 29 29 30 30 31 32 33 33 34 35 35 35 36 37 37 37 36 36 36 35 35 36 36 37 38 39 41 42 42 40 40 41 42 40 42 44 44 44 43 41 39 37 37
21 22 23 23 23 24 26 28 29 29 30 30 29 29 29 29 29 29 29 29 28 28 29 29 30 31 31 32 32 33 34 35 36 37 37 38 38 37 37 37 37 37 36 36 37 37 39 41 42 42 41 43 43 41 41 43 44 45 44 43 41 39 38
21 22 22 23 24 26 28 29 29 29 29 28 28 28 28 28 29 29 29 29 29 29 29 29 29 30 30 31 31 31 32 33 34 35 37 38 39 39 38 38 38 38 38 37 37 36 37 39 40 42 43 44 45 44 42 42 43 45 45 45 43 41 40
22 22 23 25 26 27 28 28 28 28 27 27 27 27 27 27 28 28 29 29 30 30 30 30 30 31 31 31 32 33 33 33 34 34 35 37 39 40 40 40 39 39 39 39 38 37 37 37 38 39 40 42 44 46 45 43 43 44 45 46 45 43 42
23 23 24 25 26 26 27 27 27 27 28 28 29 29 28 28 28 28 29 29 30 31 32 33 34 34 35 35 35 36 36 37 37 37 37 37 38 39 41 41 41 41 41 40 39 39 38 37 37 38 39 39 40 43 46 45 44 43 44 45 46 45 44
23 23 24 25 26 26 26 26 27 28 30 31 32 32 32 31 30 30 30 30 31 32 33 34 35 36 37 38 39 39 40 40 41 41 41 41 41 41 42 42 42 42 42 42 42 41 40 38 38 37 38 38 37 37 41 44 45 44 43 44 45 46 46
22 23 23 24 25 26 27 28 29 31 32 33 34 34 33 33 32 32 32 32 32 33 33 34 35 36 38 39 40 42 43 43 44 45 45 44 44 44 45 45 44 44 44 44 44 44 43 41 40 38 37 38 38 36 36 39 42 45 47 45 43 45 47
22 22 23 24 26 27 29 31 32 33 33 33 33 33 33 32 33 33 33 33 34 34 34 35 35 36 37 38 39 41 42 44 45 46 47 47 47 47 47 48 48 47 45 45 45 45 45 44 43 41 39 38 38 38 36 35 37 41 48 49 45 44 46
22 23 24 26 27 29 31 32 33 33 33 33 32 33 33 33 33 34 34 35 35 36 36 37 37 38 38 39 39 40 41 42 43 45 47 49 50 51 51 50 50 50 49 47 47 46 46 46 45 44 42 40 39 39 38 36 34 35 42 49 50 47 45
24 25 27 28 29 31 32 32 33 33 33 33 33 33 34 35 35 35 36 36 37 38 39 40 40 41 42 43 43 43 43 44 44 46 47 50 51 52 52 51 51 51 51 50 49 49 48 47 47 46 45 43 41 40 40 39 35 32 34 42 49 51 49
26 27 28 30 31 31 32 32 32 32 33 33 33 34 35 36 36 36 37 37 38 38 39 40 42 43 44 45 46 46 46 46 47 48 50 52 53 50 48 48 48 49 51 52 52 52 51 50 49 47 47 46 44 43 42 41 39 34 32 35 42 49 53
27 28 29 30 31 31 32 32 33 33 33 33 34 35 36 36 37 37 38 38 39 39 39 40 41 42 43 45 46 47 47 48 49 50 52 54 54 49 44 43 44 44 46 50 53 54 53 52 51 50 49 48 47 45 44 43 42 38 34 34 37 43 50
27 29 30 31 31 32 32 32 33 33 33 34 35 36 37 37 38 38 39 39 40 40 41 41 42 42 44 45 46 48 49 50 50 51 52 54 55 49 43 40 41 42 42 44 48 52 54 54 53 52 51 50 49 48 47 46 44 42 38 35 35 39 44
28 29 30 31 31 32 32 33 33 33 34 35 36 37 38 38 39 40 40 41 42 42 43 43 44 44 45 46 47 48 50 51 51 52 52 53 54 50 43 40 40 40 39 40 42 47 51 54 54 53 52 52 52 50 49 49 47 45 43 38 35 37 41
28 29 30 31 32 32 33 33 33 34 35 36 37 38 39 39 40 41 42 42 43 44 45 46 46 47 47 48 48 49 49 50 52 52 53 53 53 52 45 40 39 39 38 37 37 41 45 49 52 54 53 52 53 52 51 50 49 48 46 43 39 37 39
28 29 30 31 32 32 33 34 34 35 35 37 38 39 40 40 41 42 43 44 45 45 46 47 48 49 49 49 50 50 50 50 51 52 53 53 53 52 48 42 39 38 38 37 35 36 39 44 48 51 53 53 52 53 52 51 51 50 49 47 43 39 39
29 30 31 31 32 33 34 34 35 36 36 37 38 39 41 41 42 43 44 45 46 47 48 49 50 50 51 51 51 51 51 51 51 52 52 53 53 52 50 45 41 39 38 37 36 34 35 38 43 47 50 52 52 52 53 52 52 51 50 49 47 43 40
29 30 31 32 33 34 35 35 36 37 37 38 39 41 42 42 43 44 45 46 47 48 50 50 51 51 52 52 53 52 52 52 52 52 52 53 53 53 51 48 43 41 40 38 37 35 34 34 37 42 47 50 51 52 53 52 52 52 51 51 50 47 43
29 30 31 32 34 34 35 36 37 38 39 40 41 42 43 44 45 46 47 48 49 50 51 52 52 53 53 53 53 53 53 53 52 52 52 52 53 53 52 50 46 42 41 41 40 38 35 34 34 37 42 47 50 51 52 52 52 52 52 52 51 50 46
30 31 32 33 34 36 36 37 38 39 40 41 42 43 44 45 46 47 47 49 50 51 53 53 54 54 54 54 54 53 53 53 53 52 52 52 52 53 53 52 49 45 42 41 41 41 39 36 34 34 37 42 47 50 51 52 52 52 52 52 52 51 49
32 33 34 35 36 37 38 39 40 41 42 43 43 44 45 46 47 48 49 50 51 52 54 55 55 55 55 55 55 54 54 53 52 52 52 52 52 52 53 53 51 48 44 42 42 42 42 40 37 35 35 37 42 47 51 52 53 53 53 53 52 52 51
34 34 35 36 37 39 40 41 42 43 43 44 45 46 47 48 49 50 51 51 52 53 53 55 55 55 56 56 56 56 55 54 53 52 51 52 52 52 53 53 53 50 48 45 43 42 42 42 41 39 36 35 37 41 47 51 53 53 53 53 53 52 52
35 36 37 38 39 40 42 43 44 45 46 46 47 48 48 49 50 51 52 52 53 53 53 54 55 56 56 56 57 56 56 56 54 53 52 51 51 52 52 53 53 52 51 48 45 43 41 41 41 41 40 38 36 37 41 47 51 53 54 54 53 52 52
36 37 38 39 40 42 43 44 45 46 47 47 48 49 49 50 50 51 51 52 53 53 54 54 55 56 56 57 57 57 57 57 56 54 53 52 51 52 52 52 53 53 52 50 47 43 41 40 40 41 41 40 38 37 37 41 47 52 53 53 53 52 51
37 38 39 40 41 42 43 44 45 47 48 48 49 50 50 50 51 51 52 53 54 54 54 55 55 56 57 57 58 58 58 58 57 55 54 53 52 52 53 53 53 53 53 52 49 44 41 39 38 39 40 40 39 38 37 39 43 48 51 52 52 52 52
38 40 41 42 42 43 44 45 46 48 49 50 50 51 51 51 52 52 53 53 54 55 55 56 56 56 57 58 58 59 59 59 58 57 55 54 53 52 53 54 53 54 54 53 50 45 40 38 36 37 38 39 39 38 38 39 39 42 47 50 51 52 52
40 41 42 43 43 44 45 46 47 49 50 50 51 51 52 52 53 53 53 54 55 55 55 56 56 57 58 59 59 59 60 60 59 58 57 55 53 53 53 54 54 54 54 53 51 47 41 36 35 35 37 39 39 38 38 39 38 38 43 47 49 51 51
42 43 43 43 44 45 46 47 49 50 50 51 51 52 52 53 53 53 54 54 55 55 56 56 56 57 58 60 60 60 60 60 60 59 58 56 54 53 53 54 54 54 54 53 50 47 42 36 34 35 36 38 39 38 38 37 37 37 39 43 46 49 50
43 44 44 45 46 47 48 49 50 50 51 52 52 52 52 53 53 54 54 55 56 56 56 56 57 58 59 60 61 61 61 61 61 60 59 57 55 53 53 53 54 54 54 53 50 46 43 38 34 34 36 36 37 37 37 36 36 36 37 40 43 46 48
45 45 46 47 48 49 49 50 51 51 52 53 53 53 53 54 54 55 55 56 57 57 57 57 58 59 60 61 62 62 62 62 62 62 61 59 56 54 53 52 53 53 54 53 50 45 42 38 35 34 35 35 35 35 35 35 35 35 35 37 40 43 45
46 47 48 49 49 50 51 52 52 53 53 54 54 54 54 55 55 56 57 58 58 58 58 59 59 59 61 62 63 63 63 63 63 63 62 60 58 56 54 52 52 52 53 52 49 44 41 38 36 35 34 34 34 34 34 34 34 34 34 36 38 40 42
48 49 49 50 50 51 53 53 54 55 55 55 55 56 56 56 57 58 58 59 59 59 59 60 60 61 62 63 64 64 64 64 64 65 64 63 61 58 55 53 51 50 51 51 48 43 40 38 36 35 35 34 34 34 34 34 34 33 34 35 37 38 40
49 50 50 51 52 53 54 55 56 57 57 57 57 57 58 59 59 59 60 60 60 60 60 61 61 62 62 63 64 65 65 65 66 67 67 65 63 61 58 54 51 49 49 50 47 42 39 38 37 35 35 34 34 34 34 34 34 33 33 34 36 37 38
50 51 52 53 54 55 56 56 57 58 58 59 59 59 60 60 61 61 61 61 61 61 61 62 62 63 64 64 65 65 66 67 68 69 70 69 67 65 60 55 51 48 47 48 47 42 38 38 37 36 35 34 33 33 33 33 33 33 32 33 35 37 37
Wind_Direction
322 323 325 326 328 328 328 327 326 325 324 324 322 320 319 316 313 310 307 305 303 301 299 298 297 297 296 296 296 295 294 293 292 291 291 291 291 290 289 286 283 280 276 273 271 268 264 264 266 263 258 257 257 257 256 254 253 252 252 253 254 254 252
323 326 328 330 330 330 330 330 330 329 329 329 328 326 325 323 321 318 315 312 309 306 304 302 301 299 298 297 297 297 296 295 294 292 291 290 290 290 289 289 287 284 281 277 273 271 267 263 262 265 266 262 257 255 256 255 254 253 251 251 252 253 252
328 330 331 332 333 333 334 334 333 333 333 332 332 331 330 329 328 326 324 322 319 316 313 310 307 305 303 301 299 298 297 296 295 293 291 290 288 288 288 287 287 286 284 282 277 273 270 266 261 260 263 264 261 256 254 253 253 253 252 251 250 251 251
333 334 335 336 336 336 337 337 337 338 339 339 339 339 337 336 334 333 331 330 327 325 322 319 316 313 310 307 304 302 299 297 295 293 291 289 288 287 286 285 285 285 285 283 281 278 275 272 267 260 257 259 261 259 254 251 251 252 251 251 250 249 250
337 338 338 339 339 340 342 343 344 344 345 345 344 343 341 340 338 337 336 335 333 331 328 326 324 321 319 316 313 309 305 301 297 294 291 289 287 285 285 285 284 284 284 282 281 280 278 276 273 266 259 256 257 259 257 253 251 251 251 251 249 248 248
340 340 341 342 343 345 346 346 347 347 348 348 347 346 343 341 339 337 337 336 336 334 332 330 328 326 323 321 319 316 313 309 305 300 295 291 287 284 283 282 282 282 283 282 281 280 278 277 275 271 266 259 256 256 257 257 255 252 251 250 249 247 246
343 343 344 345 347 347 347 348 349 350 351 351 351 350 347 344 341 338 336 335 334 332 331 329 327 324 322 320 318 316 314 312 309 306 302 298 293 288 283 280 280 279 279 280 280 280 279 277 275 274 271 266 260 255 254 256 257 256 252 250 248 246 245
346 346 346 347 348 348 349 351 353 355 356 356 355 354 352 349 346 342 338 335 332 329 327 325 323 321 320 318 316 314 312 310 308 306 304 301 298 294 289 284 280 277 276 276 277 277 277 277 276 275 273 270 265 259 255 252 253 255 253 250 248 245 244
347 347 348 348 349 350 352 355 357 359 359 358 357 356 354 352 349 345 341 337 333 329 326 324 321 319 318 316 315 313 311 309 307 305 302 300 297 295 293 289 284 280 276 274 273 273 273 274 274 275 275 273 270 265 259 253 250 250 250 250 249 246 243
348 348 349 349 351 353 356 358 359 359 358 358 357 355 354 352 350 347 344 341 337 333 329 326 323 320 317 315 313 311 310 308 306 304 302 299 296 293 290 288 285 282 278 274 271 270 270 270 270 271 273 274 273 270 264 257 251 248 247 249 250 247 243
350 351 351 352 354 355 356 357 357 357 357 356 355 354 352 351 350 348 346 344 341 338 335 332 328 325 322 318 315 313 310 308 306 304 302 300 297 293 288 284 282 280 278 275 272 270 268 267 267 268 269 270 272 272 269 262 253 249 247 247 248 247 244
355 354 354 354 354 354 354 355 355 355 354 354 353 352 350 349 348 347 346 345 343 341 339 337 335 332 330 327 323 320 316 312 309 307 304 302 298 293 288 283 278 275 273 272 270 268 267 266 265 264 265 266 268 270 270 267 259 251 248 247 246 246 246
358 355 354 353 353 352 352 353 353 352 352 351 350 348 347 346 346 345 344 344 343 342 341 340 338 337 335 333 330 327 324 320 317 314 312 311 307 299 290 283 277 272 269 267 266 265 264 264 263 262 262 262 264 266 267 268 264 255 250 248 247 245 244
357 354 352 351 351 350 350 350 350 350 349 348 347 345 344 343 342 342 341 340 340 340 339 339 338 337 336 334 332 330 328 325 323 321 321 322 320 311 299 291 283 274 267 263 262 261 261 261 261 260 260 260 260 262 264 265 264 260 254 250 248 246 244
354 351 350 350 349 349 349 349 348 348 347 346 344 343 341 340 339 339 338 337 337 336 336 336 335 335 334 333 332 331 330 328 327 326 326 329 329 322 309 301 295 286 275 265 260 258 257 257 258 258 258 258 258 259 261 262 262 261 258 254 251 249 246
351 350 349 348 348 347 347 347 346 345 344 343 342 341 339 338 338 337 337 336 335 334 334 333 332 332 331 331 332 332 331 331 330 329 329 332 334 328 316 308 304 298 289 277 267 260 256 254 255 255 255 256 256 257 258 259 260 260 258 256 254 252 248
349 348 347 347 346 345 345 344 343 343 342 341 339 338 338 337 336 336 336 335 335 334 333 332 331 331 330 331 331 332 332 332 331 331 331 333 336 332 320 311 310 307 299 290 278 268 261 255 253 253 253 254 254 255 255 257 257 258 257 255 254 253 251
347 346 345 344 343 342 342 341 340 340 339 338 337 336 336 335 335 335 335 335 334 334 333 332 331 331 330 330 331 332 332 332 332 332 332 333 336 335 326 312 310 312 309 301 289 277 268 261 256 253 252 252 252 252 253 254 255 256 256 255 252 251 251
345 344 343 342 341 340 339 338 338 337 337 336 335 334 334 334 333 333 333 333 333 333 332 332 332 331 331 331 331 332 332 332 332 332 333 333 334 336 331 317 306 308 312 310 303 290 276 267 261 256 253 252 251 251 251 251 252 253 254 254 253 251 251
342 341 341 340 338 337 336 336 335 335 334 333 332 332 332 332 332 331 331 331 331 331 331 331 331 331 331 331 331 332 332 332 333 332 332 332 332 334 334 326 310 302 304 308 309 303 290 276 266 260 256 253 251 251 250 249 249 250 251 253 253 251 250
340 339 338 337 336 335 334 333 333 332 332 331 330 330 330 330 330 329 329 330 330 330 330 330 331 331 331 331 331 332 332 332 332 332 332 331 331 331 333 332 320 304 297 299 303 305 302 291 276 265 259 255 253 251 249 248 248 248 248 250 251 251 249
338 337 336 335 334 333 332 331 330 330 330 330 329 329 329 328 328 328 328 328 329 329 329 329 330 330 330 331 331 331 331 331 331 331 331 330 330 329 330 331 328 315 300 294 295 297 300 299 291 276 264 257 254 252 250 248 247 247 247 247 248 249 249
336 336 334 333 331 330 330 329 329 329 328 328 328 328 328 327 326 326 327 327 328 328 328 328 329 329 329 330 330 330 330 330 330 330 330 329 328 328 327 328 329 324 310 297 291 291 292 295 296 290 278 265 256 252 251 249 248 246 245 245 246 247 247
334 334 333 331 330 328 328 328 328 328 328 327 327 327 326 326 326 326 326 327 327 327 326 327 327 328 328 328 329 329 329 329 329 329 328 328 326 326 326 326 326 326 319 306 294 288 287 288 290 292 289 279 266 256 251 249 248 247 245 244 244 245 246
332 332 330 329 328 328 328 328 328 328 327 326 326 326 326 326 326 326 326 326 326 325 325 325 325 326 327 327 328 328 328 328 329 328 327 326 325 324 324 323 324 324 323 315 301 290 285 283 283 285 287 286 280 268 257 250 247 246 245 244 242 243 244
330 329 328 327 327 327 327 328 327 327 326 326 325 325 325 324 323 323 324 324 324 323 323 324 324 325 325 326 327 327 328 328 328 328 326 325 324 323 322 322 322 322 323 320 309 295 286 281 278 279 281 283 284 279 268 258 250 246 244 243 242 242 243
327 326 326 326 326 326 326 326 326 325 324 324 323 322 322 322 322 322 322 322 322 322 322 322 323 323 324 325 326 327 327 328 327 327 326 325 323 322 320 320 321 320 322 323 317 302 289 282 276 273 275 278 280 281 277 267 258 250 245 242 241 241 242
324 323 323 323 324 324 324 324 324 323 322 321 321 321 321 321 321 322 321 321 321 321 321 321 322 322 323 324 325 326 326 327 327 326 325 324 323 322 320 319 320 320 320 322 321 310 293 284 277 271 271 273 276 278 278 274 265 256 250 245 241 239 241
321 321 321 322 323 323 323 323 322 321 321 321 321 321 321 321 321 322 321 321 320 320 320 320 321 322 323 323 324 325 326 326 326 325 325 324 323 321 320 319 319 319 319 320 323 317 301 286 278 272 268 269 272 275 276 276 271 262 255 250 244 240 239
320 320 321 322 322 322 322 321 321 321 321 321 321 321 321 321 321 321 320 320 319 320 320 320 320 321 322 323 324 325 325 325 325 324 324 324 324 321 319 318 318 318 318 319 321 320 310 292 278 272 268 266 269 271 273 275 275 268 259 253 249 243 239
320 320 320 320 321 321 321 321 320 320 320 321 321 321 321 321 320 320 320 320 319 319 319 319 320 321 322 322 323 324 324 324 324 324 323 324 324 321 319 318 317 317 317 317 319 320 315 300 282 273 270 266 266 269 270 273 276 272 262 255 252 247 242
319 319 319 320 321 321 321 320 320 320 320 320 321 321 320 321 321 321 321 321 320 319 319 319 320 321 321 322 323 323 324 323 323 322 323 323 323 321 319 317 316 315 315 315 316 318 316 307 289 276 272 269 266 268 269 271 274 274 266 257 253 249 244
318 318 319 320 320 320 319 319 319 320 320 320 321 321 322 322 323 323 322 321 320 319 319 320 321 321 321 321 322 322 322 323 322 322 322 322 322 321 319 317 315 314 313 313 313 315 314 308 296 282 274 271 269 268 268 269 273 275 269 259 254 250 246
317 318 319 319 319 319 318 319 319 320 320 321 321 322 323 323 323 323 323 322 321 320 320 320 321 321 321 321 321 322 322 322 321 321 321 321 321 320 319 317 314 312 310 309 310 311 310 305 298 288 279 274 272 270 268 269 272 276 272 262 253 250 247
317 318 318 317 317 318 318 319 320 321 321 321 322 322 323 324 324 324 323 322 321 321 321 320 320 320 320 320 321 321 321 321 320 320 320 320 320 320 318 316 313 310 308 306 306 308 305 300 295 291 284 278 275 273 271 269 271 275 275 266 254 248 246
317 317 317 317 317 319 320 320 321 321 321 322 323 323 324 324 324 324 323 322 322 321 321 320 320 320 320 320 320 320 320 320 319 319 319 320 319 319 318 315 312 308 305 302 303 304 301 295 290 288 286 282 278 275 273 272 272 274 275 268 256 248 244
316 317 317 318 319 320 321 321 321 321 322 323 324 324 324 324 323 323 323 323 322 321 321 320 319 319 319 319 320 319 319 319 319 318 319 319 318 318 317 314 310 306 302 299 299 300 298 293 287 284 283 282 278 275 274 274 274 274 274 269 257 248 243
Height
5791 5789 5788 5786 5785 5783 5781 5780 5778 5776 5774 5772 5771 5769 5767 5765 5763 5761 5759 5757 5756 5754 5752 5751 5749 5747 5746 5744 5743 5742 5740 5739 5737 5736 5735 5733 5731 5729 5727 5725 5724 5723 5723 5723 5722 5723 5724 5725 5725 5726 5728 5729 5731 5732 5732 5733 5733 5734 5736 5737 5738 5739 5740
5789 5787 5786 5784 5783 5781 5779 5777 5776 5774 5772 5770 5768 5766 5764 5762 5760 5758 5756 5754 5752 5751 5749 5747 5745 5744 5742 5741 5739 5738 5736 5735 5734 5732 5731 5729 5728 5726 5724 5722 5720 5718 5718 5717 5717 5716 5718 5720 5721 5721 5722 5723 5725 5726 5727 5727 5728 5729 5731 5732 5733 5734 5735
5787 5786 5784 5782 5781 5779 5777 5775 5774 5772 5770 5767 5765 5763 5761 5759 5757 5755 5753 5751 5749 5747 5745 5744 5742 5740 5738 5737 5736 5734 5733 5731 5729 5728 5727 5725 5724 5722 5721 5719 5717 5715 5713 5712 5711 5711 5711 5713 5715 5717 5716 5716 5718 5721 5721 5722 5723 5724 5726 5727 5728 5729 5730
5785 5784 5782 5780 5779 5777 5775 5773 5771 5769 5767 5765 5762 5760 5758 5756 5754 5752 5750 5748 5746 5744 5742 5740 5738 5736 5735 5733 5732 5730 5729 5727 5726 5724 5722 5721 5719 5718 5716 5715 5714 5712 5710 5708 5707 5706 5705 5705 5707 5710 5712 5710 5711 5714 5715 5715 5717 5719 5720 5722 5723 5724 5725
5783 5781 5780 5778 5777 5775 5773 5771 5769 5766 5764 5762 5760 5757 5755 5753 5751 5749 5747 5745 5743 5741 5739 5737 5735 5733 5731 5730 5728 5726 5725 5723 5721 5720 5718 5716 5715 5713 5712 5711 5709 5708 5706 5704 5703 5702 5700 5699 5699 5702 5705 5705 5706 5708 5709 5710 5711 5713 5715 5717 5718 5719 5720
5781 5779 5778 5776 5774 5773 5770 5768 5766 5764 5762 5760 5758 5755 5753 5751 5749 5747 5744 5742 5740 5738 5736 5734 5732 5730 5728 5726 5724 5723 5721 5719 5717 5715 5713 5712 5710 5708 5707 5706 5705 5703 5701 5700 5699 5698 5696 5695 5694 5694 5696 5698 5700 5702 5703 5704 5705 5706 5708 5710 5712 5714 5715
5779 5777 5775 5774 5772 5770 5768 5766 5764 5762 5760 5758 5755 5753 5751 5749 5747 5745 5742 5740 5738 5736 5734 5732 5730 5727 5725 5723 5721 5719 5717 5715 5713 5711 5709 5707 5705 5703 5702 5701 5700 5698 5696 5695 5694 5693 5692 5691 5689 5689 5689 5691 5693 5695 5697 5699 5699 5700 5702 5704 5706 5708 5709
5776 5775 5773 5772 5770 5768 5766 5764 5762 5760 5757 5755 5753 5751 5749 5747 5745 5742 5740 5738 5736 5734 5731 5729 5727 5724 5722 5720 5717 5715 5713 5711 5709 5707 5705 5703 5701 5698 5696 5695 5694 5693 5691 5690 5689 5688 5687 5686 5685 5683 5683 5684 5686 5687 5689 5692 5694 5695 5696 5697 5699 5701 5703
5775 5773 5772 5770 5768 5766 5764 5762 5760 5757 5755 5753 5751 5748 5746 5744 5742 5740 5738 5735 5733 5731 5729 5726 5724 5721 5718 5716 5713 5711 5709 5706 5704 5702 5700 5698 5696 5694 5691 5689 5688 5686 5685 5684 5683 5682 5681 5680 5680 5679 5678 5677 5679 5680 5682 5684 5687 5689 5690 5690 5691 5694 5696
5774 5772 5770 5768 5766 5764 5762 5760 5757 5755 5753 5751 5748 5746 5744 5741 5739 5737 5735 5732 5730 5727 5725 5723 5720 5717 5715 5712 5709 5707 5704 5701 5699 5696 5694 5692 5690 5688 5685 5683 5681 5680 5679 5678 5677 5676 5675 5675 5674 5674 5673 5672 5672 5673 5675 5677 5680 5682 5683 5683 5684 5686 5688
5773 5771 5769 5767 5765 5763 5760 5758 5755 5753 5751 5749 5746 5744 5742 5740 5737 5735 5732 5730 5727 5724 5722 5719 5716 5713 5711 5708 5705 5702 5699 5696 5693 5690 5688 5685 5683 5680 5678 5675 5673 5672 5671 5671 5670 5669 5669 5668 5668 5668 5668 5668 5666 5666 5667 5670 5673 5674 5675 5676 5678 5679 5680
5771 5769 5767 5765 5763 5761 5759 5756 5754 5751 5749 5747 5745 5742 5740 5737 5735 5733 5730 5727 5724 5721 5718 5715 5712 5709 5706 5703 5700 5697 5694 5691 5688 5685 5682 5678 5674 5671 5668 5666 5664 5663 5663 5662 5662 5661 5661 5661 5661 5661 5661 5662 5662 5660 5660 5662 5666 5668 5668 5668 5670 5672 5674
5770 5768 5766 5764 5761 5759 5756 5754 5752 5749 5747 5745 5742 5740 5738 5735 5733 5730 5727 5724 5721 5718 5715 5712 5709 5705 5702 5699 5696 5692 5689 5686 5682 5679 5675 5670 5665 5660 5657 5654 5653 5653 5653 5653 5652 5652 5653 5653 5653 5654 5655 5655 5656 5655 5655 5655 5658 5661 5662 5661 5662 5665 5667
5768 5766 5764 5762 5759 5757 5754 5752 5750 5747 5745 5743 5740 5738 5735 5733 5730 5727 5725 5722 5719 5715 5712 5709 5705 5702 5698 5695 5691 5688 5684 5680 5676 5672 5668 5663 5657 5651 5646 5643 5641 5641 5642 5643 5643 5642 5643 5644 5645 5646 5647 5648 5649 5649 5649 5649 5650 5653 5656 5656 5656 5657 5659
5766 5764 5762 5759 5757 5754 5752 5750 5747 5745 5742 5740 5737 5735 5732 5730 5727 5725 5722 5719 5716 5712 5709 5706 5702 5699 5695 5692 5688 5684 5679 5675 5670 5666 5661 5656 5649 5643 5638 5635 5632 5631 5631 5632 5632 5633 5633 5635 5636 5638 5639 5639 5641 5642 5642 5643 5644 5645 5649 5651 5651 5651 5652
5764 5762 5759 5757 5754 5752 5750 5747 5745 5742 5740 5737 5735 5732 5729 5727 5724 5721 5718 5715 5712 5709 5705 5702 5698 5695 5691 5688 5684 5679 5674 5669 5665 5660 5655 5649 5643 5637 5633 5630 5627 5624 5623 5623 5623 5623 5624 5625 5627 5629 5630 5631 5633 5634 5635 5636 5637 5638 5641 5644 5645 5645 5646
5762 5759 5757 5754 5752 5749 5747 5745 5742 5740 5737 5734 5731 5729 5726 5723 5720 5717 5714 5711 5708 5704 5701 5698 5694 5690 5687 5683 5679 5674 5669 5664 5659 5654 5649 5644 5638 5633 5629 5626 5623 5619 5617 5616 5615 5615 5615 5616 5617 5619 5621 5623 5624 5626 5627 5628 5629 5631 5633 5637 5639 5639 5639
5759 5757 5754 5752 5749 5747 5744 5742 5739 5737 5734 5731 5728 5725 5722 5719 5716 5713 5710 5707 5703 5700 5697 5693 5690 5686 5682 5678 5674 5669 5665 5659 5654 5649 5643 5638 5634 5629 5624 5621 5618 5615 5613 5610 5609 5608 5608 5608 5609 5610 5612 5614 5616 5617 5619 5620 5622 5623 5624 5627 5631 5633 5634
5757 5754 5752 5749 5747 5744 5741 5739 5736 5733 5731 5728 5725 5722 5719 5716 5712 5709 5706 5702 5699 5696 5692 5689 5685 5681 5677 5672 5668 5664 5660 5655 5649 5644 5639 5634 5629 5624 5620 5617 5614 5611 5609 5606 5604 5602 5601 5601 5602 5602 5603 5605 5607 5609 5611 5612 5613 5615 5616 5618 5622 5626 5628
5754 5751 5749 5746 5744 5741 5738 5736 5733 5730 5727 5725 5722 5718 5715 5712 5709 5705 5702 5698 5695 5691 5688 5684 5680 5676 5672 5667 5663 5659 5654 5650 5645 5639 5634 5629 5625 5620 5616 5612 5609 5607 5604 5602 5600 5598 5596 5595 5595 5595 5596 5597 5598 5600 5602 5604 5606 5607 5609 5611 5614 5618 5621
5751 5748 5746 5743 5740 5738 5735 5732 5730 5727 5724 5721 5718 5715 5711 5708 5705 5701 5697 5694 5690 5686 5682 5679 5675 5671 5667 5662 5658 5653 5649 5644 5640 5635 5630 5625 5620 5616 5612 5608 5604 5602 5599 5598 5596 5593 5592 5590 5589 5589 5589 5589 5590 5591 5593 5596 5598 5599 5601 5603 5606 5609 5613
5748 5745 5743 5740 5737 5734 5732 5729 5726 5723 5720 5717 5714 5711 5707 5704 5700 5697 5693 5689 5685 5681 5677 5673 5670 5666 5661 5657 5652 5648 5644 5639 5635 5631 5626 5621 5616 5611 5607 5604 5600 5597 5594 5592 5590 5589 5587 5585 5584 5583 5582 5582 5582 5584 5585 5587 5589 5591 5593 5595 5598 5601 5605
5745 5742 5740 5737 5734 5731 5728 5726 5723 5720 5716 5713 5710 5707 5703 5700 5696 5692 5688 5684 5680 5676 5672 5668 5664 5660 5656 5652 5648 5643 5639 5634 5630 5626 5622 5617 5613 5608 5603 5599 5596 5592 5589 5587 5585 5583 5581 5580 5578 5577 5576 5576 5576 5576 5577 5579 5581 5583 5585 5587 5590 5593 5596
5742 5739 5736 5734 5731 5728 5725 5722 5719 5716 5713 5709 5706 5703 5699 5695 5691 5687 5683 5680 5675 5671 5666 5662 5658 5655 5651 5647 5643 5639 5634 5630 5626 5621 5617 5612 5608 5604 5600 5595 5591 5588 5584 5581 5579 5577 5575 5574 5573 5572 5570 5569 5569 5569 5570 5571 5573 5575 5576 5579 5582 5585 5588
5738 5736 5733 5730 5727 5724 5721 5718 5715 5712 5708 5705 5702 5698 5694 5690 5686 5682 5678 5674 5671 5667 5662 5657 5653 5650 5646 5641 5637 5633 5629 5625 5621 5617 5612 5608 5603 5599 5595 5591 5587 5583 5580 5576 5573 5571 5569 5568 5567 5566 5565 5564 5563 5562 5563 5563 5565 5566 5568 5571 5574 5577 5580
5735 5732 5729 5726 5723 5720 5717 5714 5710 5707 5704 5700 5697 5693 5689 5685 5682 5678 5673 5669 5665 5662 5658 5653 5648 5644 5640 5636 5632 5628 5623 5619 5615 5611 5607 5603 5599 5594 5590 5586 5583 5579 5575 5571 5567 5565 5563 5562 5561 5560 5559 5558 5557 5556 5556 5556 5557 5558 5560 5563 5566 5570 5573
5732 5729 5726 5723 5720 5716 5713 5709 5706 5702 5699 5696 5692 5688 5685 5681 5677 5673 5669 5665 5661 5657 5653 5648 5644 5639 5635 5631 5626 5622 5618 5614 5610 5606 5602 5598 5594 5589 5585 5581 5577 5574 5570 5566 5562 5558 5556 5555 5555 5554 5553 5552 5551 5550 5549 5549 5549 5550 5553 5556 5559 5563 5566
5728 5725 5722 5719 5716 5713 5709 5706 5702 5698 5695 5691 5687 5684 5680 5676 5672 5668 5664 5660 5656 5652 5648 5643 5639 5635 5630 5625 5621 5617 5612 5608 5604 5600 5596 5592 5588 5583 5579 5575 5571 5568 5564 5560 5556 5552 5549 5548 5548 5547 5547 5546 5545 5544 5543 5542 5542 5543 5546 5548 5551 5555 5558
5725 5722 5719 5716 5712 5709 5705 5701 5698 5694 5690 5686 5682 5679 5675 5671 5667 5663 5659 5654 5650 5646 5642 5638 5633 5629 5625 5620 5616 5611 5607 5603 5599 5594 5590 5586 5582 5577 5573 5568 5565 5561 5557 5554 5550 5546 5543 5541 5541 5541 5540 5540 5539 5539 5537 5535 5536 5538 5539 5541 5544 5547 5551
5721 5718 5715 5712 5709 5705 5701 5697 5693 5689 5685 5682 5678 5674 5670 5666 5662 5658 5654 5650 5645 5641 5637 5632 5628 5623 5619 5614 5610 5606 5601 5597 5593 5588 5584 5581 5576 5572 5567 5562 5558 5555 5551 5547 5544 5540 5537 5535 5534 5534 5534 5534 5533 5533 5531 5530 5530 5531 5532 5534 5536 5539 5543
5718 5715 5712 5708 5705 5701 5697 5693 5689 5685 5681 5677 5673 5669 5665 5661 5657 5653 5649 5645 5640 5636 5632 5627 5622 5618 5613 5608 5604 5600 5595 5591 5587 5582 5578 5575 5571 5566 5561 5556 5551 5548 5545 5541 5538 5535 5531 5529 5528 5527 5527 5527 5527 5527 5526 5525 5525 5525 5525 5527 5529 5532 5535
5714 5711 5708 5704 5700 5696 5693 5689 5685 5681 5676 5672 5669 5665 5661 5657 5652 5648 5643 5639 5635 5630 5626 5622 5617 5612 5607 5602 5597 5593 5589 5585 5580 5576 5572 5568 5565 5560 5555 5550 5545 5541 5538 5535 5532 5529 5526 5524 5522 5521 5521 5520 5521 5521 5520 5520 5520 5519 5519 5520 5522 5525 5528
5711 5707 5704 5700 5696 5692 5688 5685 5680 5676 5672 5668 5664 5660 5656 5651 5647 5643 5638 5634 5629 5624 5620 5616 5611 5606 5601 5596 5591 5587 5583 5579 5574 5570 5566 5562 5559 5554 5550 5545 5540 5535 5531 5528 5525 5523 5521 5518 5517 5516 5515 5514 5515 5515 5514 5514 5514 5514 5514 5514 5515 5518 5521
5707 5703 5699 5696 5692 5688 5684 5680 5676 5671 5667 5663 5659 5655 5650 5646 5642 5637 5633 5628 5623 5619 5614 5609 5605 5600 5595 5590 5585 5581 5576 5572 5567 5563 5559 5556 5552 5548 5544 5539 5535 5530 5526 5522 5519 5516 5515 5512 5511 5510 5509 5508 5509 5509 5509 5509 5508 5508 5508 5508 5509 5511 5514
5703 5699 5695 5691 5688 5684 5679 5675 5671 5666 5662 5658 5653 5649 5645 5640 5636 5632 5627 5622 5617 5613 5608 5603 5598 5594 5589 5584 5579 5574 5569 5565 5560 5556 5552 5549 5545 5541 5537 5533 5529 5524 5520 5516 5512 5510 5508 5506 5505 5504 5503 5503 5503 5503 5503 5503 5503 5503 5502 5502 5503 5505 5508
5698 5695 5691 5687 5683 5679 5674 5670 5665 5660 5656 5652 5648 5643 5639 5634 5630 5626 5622 5617 5612 5607 5602 5597 5592 5588 5583 5578 5573 5567 5563 5558 5553 5548 5544 5541 5537 5533 5529 5525 5521 5517 5514 5510 5506 5504 5502 5500 5499 5498 5497 5496 5496 5496 5497 5497 5497 5498 5497 5497 5497 5499 5501
5694 5691 5687 5683 5678 5674 5669 5665 5660 5655 5650 5646 5642 5637 5633 5629 5625 5620 5616 5612 5606 5601 5596 5591 5586 5581 5576 5572 5566 5561 5555 5551 5546 5540 5536 5532 5528 5525 5521 5517 5513 5509 5506 5503 5500 5497 5495 5493 5492 5491 5491 5490 5490 5490 5491 5491 5491 5492 5492 5491 5492 5493 5495